Flag Weather past 2 weeks in Pago Pago, American Samoa

Now
80 °F

Passing clouds.


Feels Like: 85 °F
Forecast: 77 / 85 °F
Wind: 13 mph from Southeast

Location: Pago Pago / Int. Airp.

Current Time: Nov 21, 2014 at 5:49:58 AM

Latest Report: Nov 21, 2014 at 4:53 AM


Visibility: 11 mi

Pressure: 29.79 "Hg

Humidity: 78%

Dew point: 73 °F

Location of Pago PagoLocation

Historic Weather in Pago Pago — Graph

°F

Pago Pago temperature yesterday

Maximum temperature yesterday: 88 °F (at 11:50 AM)
Minimum temperature yesterday: 80 °F (at 2:51 AM)
Average temperature yesterday: 83 °F

Past Weeks' High & Low Weather Summary

 TemperatureHumidityPressure
High89 °F (Nov 18, 11:50 AM)95% (Nov 12, 6:50 AM)29.95 "Hg (Nov 12, 6:50 AM)
Low75 °F (Nov 9, 2:50 AM)63% (Nov 9, 1:50 PM)29.74 "Hg (Nov 9, 2:51 PM)
Average82 °F81%29.86 "Hg
* Reported Nov 6 3:57 AM — Nov 21 3:50 AM, Pago Pago, Weather by CustomWeather, © 2014

Note: Actual official high and low records may vary slightly from our data, if they occured in-between our weather recording intervals... More about our weather records

Advertising

Pago Pago weather history for previous 24 hours

 ConditionsComfort  
Time TempWeatherWind HumidityBarometerVisibility
3:50 AM
Nov 21
81 °FPassing clouds.13 mph79%29.79 "Hg10 mi
2:54 AM81 °FPassing clouds.13 mph80%29.79 "Hg10 mi
1:50 AM81 °FPassing clouds.10 mph81%29.81 "Hg10 mi
12:50 AM81 °FPassing clouds.8 mph81%29.83 "Hg10 mi
11:50 PM
Nov 20
81 °FPassing clouds.12 mph79%29.86 "Hg10 mi
10:50 PM81 °FPassing clouds.14 mph79%29.88 "Hg10 mi
9:50 PM81 °FPartly cloudy.12 mph80%29.89 "Hg10 mi
8:53 PM82 °FOvercast.16 mph79%29.88 "Hg10 mi
7:52 PM82 °FOvercast.14 mph80%29.87 "Hg10 mi
6:50 PM82 °FPartly cloudy.13 mph77%29.85 "Hg11 mi
5:53 PM82 °FMostly cloudy.10 mph74%29.83 "Hg12 mi
4:57 PM84 °FMore clouds than sun.13 mph72%29.80 "Hg12 mi
3:50 PM84 °FCloudy.12 mph74%29.80 "Hg12 mi
2:50 PM85 °FMore clouds than sun.10 mph72%29.80 "Hg12 mi
12:50 PM88 °FBroken clouds.16 mph68%29.83 "Hg12 mi
11:50 AM88 °FBroken clouds.14 mph68%29.85 "Hg12 mi
10:50 AM87 °FBroken clouds.17 mph67%29.86 "Hg12 mi
9:51 AM86 °FBroken clouds.17 mph69%29.88 "Hg12 mi
8:50 AM85 °FBroken clouds.17 mph73%29.89 "Hg12 mi
7:50 AM82 °FCloudy.15 mph78%29.88 "Hg12 mi
6:50 AM82 °FCloudy.17 mph80%29.86 "Hg11 mi
5:52 AM81 °FOvercast.15 mph78%29.83 "Hg11 mi
Weather by CustomWeather, © 2014

See weather overviewHow to use our weather pages